Location: Grasslands National Park East Block
(49.0708°N, 106.5295°W)
Time: 11:16:55
(UTC-06:00)

A-11 Canister half - All Passes

Search period start: 16 October 2019 00:00
Search period end: 26 October 2019 00:00
Orbit: 1514 x 1686 km, 47.2° (Epoch: 16 October)

Date Brightness Start Highest point End Pass type
(mag) Time Alt. Az. Time Alt. Az. Time Alt. Az.
16 Oct - 03:09:12 10° SSW 03:17:39 33° SE 03:25:50 10° E visible
16 Oct - 05:11:50 10° WSW 05:21:33 67° SSE 05:30:54 10° E visible
16 Oct - 07:16:35 10° W 07:26:17 81° S 07:35:38 10° E daylight
16 Oct - 09:21:35 10° WNW 09:30:47 57° SSW 09:39:44 10° SE daylight
16 Oct - 11:27:22 10° W 11:34:07 23° SW 11:40:47 10° S daylight
17 Oct - 02:46:29 10° SSW 02:54:48 32° SE 03:02:53 10° E visible
17 Oct - 04:48:55 10° WSW 04:58:38 66° SSE 05:08:00 10° E visible
17 Oct - 06:53:39 10° W 07:03:22 81° S 07:12:44 10° E visible
17 Oct - 08:58:39 10° WNW 09:07:55 59° SSW 09:16:55 10° SE daylight
17 Oct - 11:04:18 10° W 11:11:19 24° SW 11:18:14 10° S daylight
18 Oct - 02:23:48 10° SSW 02:31:58 30° SE 02:39:54 10° E visible
18 Oct - 04:26:02 10° SW 04:35:44 64° SSE 04:45:06 10° E visible
18 Oct - 06:30:41 10° W 06:40:27 81° S 06:49:51 10° E visible
18 Oct - 08:35:42 10° WNW 08:45:02 61° SSW 08:54:05 10° SE daylight
18 Oct - 10:41:15 10° W 10:48:31 26° SW 10:55:41 10° S daylight
19 Oct - 02:01:07 10° S 02:09:07 28° SE 02:16:55 10° E visible
19 Oct - 04:03:07 10° SW 04:12:51 62° SSE 04:22:12 10° E visible
19 Oct - 06:07:43 10° W 06:17:31 81° S 06:26:57 10° E visible
19 Oct - 08:12:45 10° W 08:22:09 63° SSW 08:31:15 10° SE daylight
19 Oct - 10:18:13 10° W 10:25:42 28° SW 10:33:05 10° S daylight
20 Oct - 01:38:28 10° S 01:46:17 27° SE 01:53:55 10° E visible
20 Oct - 03:40:14 10° SW 03:49:56 61° SSE 03:59:18 10° ENE visible
20 Oct - 05:44:46 10° W 05:54:35 81° S 06:04:03 10° E visible
20 Oct - 07:49:48 10° W 07:59:16 64° SSW 08:08:26 10° SE daylight
20 Oct - 09:55:12 10° W 10:02:54 29° SW 10:10:28 10° S daylight
21 Oct - 01:15:50 10° S 01:23:27 25° SE 01:30:53 10° E visible
21 Oct - 03:17:21 10° SW 03:27:02 59° SSE 03:36:23 10° ENE visible
21 Oct - 05:21:48 10° W 05:31:40 81° S 05:41:09 10° E visible
21 Oct - 07:26:50 10° W 07:36:23 66° SSW 07:45:35 10° ESE daylight
21 Oct - 09:32:11 10° W 09:40:06 31° SW 09:47:51 10° SSE daylight
22 Oct - 00:53:15 10° S 01:00:37 24° SE 01:07:51 10° E visible
22 Oct - 02:54:28 10° SW 03:04:08 57° SSE 03:13:30 10° ENE visible
22 Oct - 04:58:51 10° W 05:08:45 81° S 05:18:16 10° E visible
22 Oct - 07:03:53 10° W 07:13:29 68° SSW 07:22:44 10° ESE visible
22 Oct - 09:09:10 10° W 09:17:16 33° SW 09:25:11 10° SSE daylight
23 Oct - 00:30:40 10° S 00:37:48 23° SE 00:44:48 10° E visible
23 Oct - 02:31:37 10° SW 02:41:15 55° SSE 02:50:35 10° ENE visible
23 Oct - 04:35:54 10° W 04:45:49 80° S 04:55:21 10° E visible
23 Oct - 06:40:57 10° W 06:50:36 70° SSW 06:59:53 10° ESE visible
23 Oct - 08:46:10 10° WNW 08:54:27 35° SW 09:02:31 10° SSE daylight
24 Oct - 00:08:07 10° S 00:14:59 21° SE 00:21:43 10° E visible
24 Oct - 02:08:44 10° SW 02:18:21 53° SSE 02:27:40 10° ENE visible
24 Oct - 04:12:56 10° WSW 04:22:53 80° S 04:32:27 10° E visible
24 Oct - 06:17:59 10° W 06:27:42 71° SSW 06:37:02 10° ESE visible
24 Oct - 08:23:11 10° WNW 08:31:37 37° SW 08:39:50 10° SSE daylight
24 Oct - 23:45:37 10° S 23:52:10 20° SE 23:58:36 10° E night (unlit)
25 Oct - 01:45:54 10° SW 01:55:28 51° SSE 02:04:45 10° ENE visible
25 Oct - 03:49:58 10° WSW 03:59:57 79° S 04:09:33 10° E visible
25 Oct - 05:55:02 10° W 06:04:47 73° SSW 06:14:10 10° ESE visible
25 Oct - 08:00:12 10° WNW 08:08:47 39° SW 08:17:08 10° SSE daylight
25 Oct - 10:09:43 10° WSW 10:11:23 11° WSW 10:13:03 10° SW daylight
25 Oct - 23:23:09 10° SSE 23:29:21 18° SE 23:35:28 10° E night (unlit)
